Find IRNSS-R1G

NORAD ID: 41469 Int'l Des: 2016-027 Owner: ISRO Country: IN operational
HEOCIRCULARGSO

リアルタイム位置

3D地球を読み込み中...

IRNSS-R1Gについて

説明を読み込み中...

次回通過

Passes for default location (London). Set your location on the main map for personalized predictions.

高度履歴

Loading altitude history...

軌道要素

1 41469U 16027A 26121.29693616 -.00000327 00000-0 00000-0 0 9997
2 41469 5.0809 98.5725 0005975 346.7817 10.4400 1.00273710 36702
Epoch: May 1, 2026 • Age: 8 hours

現在のステータス

高度 35802.9 km
速度 3.07 km/s
衛星直下点 4.33°N, 129.82°E
打ち上げ日 Apr 28, 2016
運用期間 10 years
タイプ other

技術仕様

分類 Payload
質量 1425.00 kg
乾燥質量 598.00 kg
総質量 1425.00 kg
長さ 1.60 m
直径 1.50 m
スパン 10.00 m
形状 Box + 2 Pan
製造者 ISAC
バスタイプ I1K
フェーズステータス In Orbit
所有者/国 ISRO/IN

Most Searched